Flag for Norway Weather past 2 weeks in Longyearbyen, Svalbard, Norway

Now
28 °F

Partly sunny.


Feels Like: 18 °F
Forecast: 10 / 26 °F
Wind: 13 mph from Southeast

Location: Svalbard Lufthavn


UV Index: 0 (Low)

Visibility: N/A


Pressure: 29.12 "Hg

Humidity: 69%

Dew point: 19 °F

Location of LongyearbyenLocation

Historic Weather in Longyearbyen

°F

Longyearbyen temperature yesterday

Maximum temperature yesterday: 25 °F (at 5:50 PM)
Minimum temperature yesterday: 12 °F (at 12:50 AM)
Average temperature yesterday: 19 °F

Past Weeks' High & Low Weather Summary

 TemperatureHumidityPressure
High32 °F (Apr 9, 11:50 AM)86% (Apr 9, 1:50 AM)30.15 "Hg (Apr 9, 1:50 AM)
Low0 °F (Apr 7, 1:50 AM)48% (Apr 3, 3:50 PM)29.12 "Hg (Apr 16, 4:50 PM)
Average13 °F66%29.65 "Hg
* Reported Apr 1 5:50 PM — Apr 16 5:50 PM, Longyearbyen, Weather by CustomWeather, © 2014

Note: Actual official high and low records may vary slightly from our data, if they occured in-between our weather recording intervals... More about our weather records

Advertising

Historic Weather Conditions — Data for Previous 24 hours

 ConditionsComfort  
Time TempWeatherWind HumidityBarometerVisibility
5:50 PM
Apr 16
28 °FPartly sunny.13 mph69%29.12 "HgN/A
4:50 PM28 °FScattered showers. Scattered clouds.20 mph69%29.12 "HgN/A
3:50 PM28 °FLight snow. Broken clouds.22 mph74%29.15 "Hg4 mi
1:50 PM28 °FPartly sunny.23 mph69%29.21 "HgN/A
12:50 PM27 °FLight snow. Partly sunny.28 mph69%29.27 "HgN/A
11:50 AM27 °FLight snow. Broken clouds.26 mph69%29.33 "Hg5 mi
10:50 AM27 °FLight snow. Partly sunny.25 mph69%29.36 "HgN/A
9:50 AM27 °FLight snow. Scattered clouds.24 mph69%29.42 "Hg4 mi
8:50 AM27 °FPartly sunny.24 mph64%29.45 "Hg5 mi
7:50 AM25 °FPartly sunny.18 mph69%29.50 "HgN/A
5:50 AM23 °FPartly sunny.18 mph63%29.56 "HgN/A
4:50 AM23 °FPartly sunny.16 mph63%29.62 "HgN/A
3:50 AM23 °FPartly sunny.10 mph68%29.65 "HgN/A
2:50 AM23 °FPassing clouds.12 mph68%29.65 "HgN/A
12:50 AM21 °FPassing clouds.12 mph68%29.71 "HgN/A
11:50 PM
Apr 15
21 °FPartly sunny.9 mph68%29.71 "HgN/A
10:50 PM21 °FPartly sunny.9 mph63%29.71 "HgN/A
9:50 PM19 °FPartly sunny.12 mph68%29.74 "HgN/A
8:50 PM21 °FPartly sunny.14 mph68%29.74 "HgN/A
7:50 PM23 °FScattered showers. Broken clouds.10 mph63%29.74 "HgN/A
Weather by CustomWeather, © 2014

See weather overview